When you browse on this site, cookies collect data to enhance your experience and personalize the content and advertising you see.
Visit our Privacy Policy to learn more. By continuing to use the site, you agree to this use of cookies and data.
EN

Hourly Weather Sucre

Today, 5 July, Sunday

Time Temperature Precipitation Wind Pressure Humidity
00:00 +11°C° 0 mm 1 mps 537 mmHg 39%
01:00 +10°C° 0 mm 1 mps 537 mmHg 37%
02:00 +9°C° 0 mm 1 mps 536 mmHg 37%
03:00 +9°C° 0 mm 1 mps 536 mmHg 34%
04:00 +8°C° 0 mm 1 mps 536 mmHg 31%
05:00 +8°C° 0 mm 1 mps 536 mmHg 29%
06:00 +9°C° 0 mm 1 mps 537 mmHg 27%
07:00 +10°C° 0 mm 1 mps 538 mmHg 26%
08:00 +11°C° 0 mm 1 mps 539 mmHg 25%
09:00 +13°C° 0 mm 1 mps 541 mmHg 20%
10:00 +16°C° 0 mm 1 mps 542 mmHg 15%
11:00 +19°C° 0 mm 1 mps 543 mmHg 10%
12:00 +20°C° 0 mm 1 mps 543 mmHg 11%
13:00 +20°C° 0 mm 2 mps 543 mmHg 12%
14:00 +21°C° 0 mm 3 mps 543 mmHg 12%
15:00 +20°C° 0 mm 3 mps 542 mmHg 17%
16:00 +20°C° 0 mm 3 mps 542 mmHg 22%
17:00 +19°C° 0 mm 3 mps 541 mmHg 27%
18:00 +17°C° 0 mm 3 mps 541 mmHg 35%
19:00 +15°C° 0 mm 2 mps 540 mmHg 44%
20:00 +13°C° 0 mm 1 mps 540 mmHg 53%
21:00 +12°C° 0 mm 1 mps 540 mmHg 58%
22:00 +12°C° 0 mm 1 mps 540 mmHg 63%
23:00 +11°C° 0 mm 1 mps 540 mmHg 69%

Tomorrow, 6 July, Monday

Time Temperature Precipitation Wind Pressure Humidity
00:00 +11°C° 0 mm 1 mps 539 mmHg 73%
01:00 +10°C° 0 mm 1 mps 539 mmHg 77%
02:00 +10°C° 0 mm 1 mps 539 mmHg 81%
03:00 +9°C° 0 mm 2 mps 539 mmHg 84%
04:00 +9°C° 0 mm 2 mps 539 mmHg 88%
05:00 +9°C° 0 mm 2 mps 539 mmHg 91%
06:00 +9°C° 0 mm 2 mps 539 mmHg 89%
07:00 +9°C° 0 mm 2 mps 539 mmHg 88%
08:00 +9°C° 0 mm 2 mps 539 mmHg 87%
09:00 +12°C° 0 mm 2 mps 540 mmHg 78%
10:00 +12°C° 0 mm 3 mps 541 mmHg 69%
11:00 +14°C° 0 mm 4 mps 542 mmHg 60%
12:00 +15°C° 0 mm 4 mps 541 mmHg 53%
13:00 +18°C° 0 mm 4 mps 541 mmHg 45%
14:00 +19°C° 0 mm 5 mps 541 mmHg 38%
15:00 +19°C° 0 mm 5 mps 541 mmHg 39%
16:00 +19°C° 0 mm 5 mps 540 mmHg 39%
17:00 +17°C° 0 mm 5 mps 540 mmHg 40%
18:00 +17°C° 0 mm 4 mps 540 mmHg 51%
19:00 +14°C° 0 mm 3 mps 539 mmHg 62%
20:00 +13°C° 0 mm 2 mps 539 mmHg 73%
21:00 +13°C° 0 mm 2 mps 539 mmHg 77%
22:00 +12°C° 0 mm 2 mps 539 mmHg 80%
23:00 +12°C° 0 mm 2 mps 539 mmHg 84%

Day after tomorrow, 7 July, Tuesday

Time Temperature Precipitation Wind Pressure Humidity
00:00 +10°C° 0 mm 2 mps 538 mmHg 85%
01:00 +10°C° 0 mm 2 mps 538 mmHg 87%
02:00 +9°C° 0 mm 2 mps 538 mmHg 89%
03:00 +9°C° 0 mm 2 mps 537 mmHg 87%
04:00 +9°C° 0 mm 2 mps 537 mmHg 85%
05:00 +10°C° 0 mm 1 mps 537 mmHg 84%
06:00 +9°C° 0 mm 2 mps 537 mmHg 80%
07:00 +9°C° 0 mm 2 mps 538 mmHg 76%
08:00 +10°C° 0 mm 2 mps 538 mmHg 73%
09:00 +12°C° 0 mm 3 mps 539 mmHg 61%
10:00 +14°C° 0 mm 3 mps 540 mmHg 50%
11:00 +17°C° 0 mm 4 mps 541 mmHg 39%
12:00 +19°C° 0 mm 5 mps 541 mmHg 31%
13:00 +20°C° 0 mm 6 mps 541 mmHg 23%
14:00 +22°C° 0 mm 8 mps 542 mmHg 16%
15:00 +22°C° 0 mm 7 mps 541 mmHg 16%
16:00 +21°C° 0 mm 7 mps 541 mmHg 15%
17:00 +21°C° 0 mm 7 mps 540 mmHg 15%
18:00 +17°C° 0 mm 5 mps 540 mmHg 19%
19:00 +15°C° 0 mm 4 mps 540 mmHg 23%
20:00 +13°C° 0 mm 3 mps 540 mmHg 27%
21:00 +12°C° 0 mm 3 mps 540 mmHg 36%
22:00 +12°C° 0 mm 2 mps 539 mmHg 44%
23:00 +10°C° 0 mm 2 mps 539 mmHg 52%

8 July, Wednesday

Time Temperature Precipitation Wind Pressure Humidity
00:00 +9°C° 0 mm 2 mps 539 mmHg 58%
01:00 +10°C° 0 mm 1 mps 539 mmHg 64%
02:00 +9°C° 0 mm 1 mps 538 mmHg 69%
03:00 +8°C° 0 mm 1 mps 538 mmHg 68%
04:00 +8°C° 0 mm 1 mps 538 mmHg 67%
05:00 +8°C° 0 mm 1 mps 538 mmHg 66%
06:00 +8°C° 0 mm 1 mps 538 mmHg 61%
07:00 +9°C° 0 mm 1 mps 539 mmHg 57%
08:00 +9°C° 0 mm 1 mps 540 mmHg 53%
09:00 +11°C° 0 mm 1 mps 541 mmHg 43%
10:00 +13°C° 0 mm 1 mps 542 mmHg 33%
11:00 +15°C° 0 mm 1 mps 543 mmHg 23%
12:00 +16°C° 0 mm 2 mps 543 mmHg 20%
13:00 +18°C° 0 mm 3 mps 543 mmHg 18%
14:00 +19°C° 0 mm 4 mps 543 mmHg 15%
15:00 +19°C° 0 mm 3 mps 542 mmHg 15%
16:00 +19°C° 0 mm 3 mps 542 mmHg 15%
17:00 +18°C° 0 mm 3 mps 542 mmHg 15%
18:00 +16°C° 0 mm 2 mps 542 mmHg 22%
19:00 +14°C° 0 mm 2 mps 541 mmHg 28%
20:00 +12°C° 0 mm 1 mps 541 mmHg 34%
21:00 +11°C° 0 mm 1 mps 541 mmHg 42%
22:00 +10°C° 0 mm 1 mps 540 mmHg 51%
23:00 +9°C° 0 mm 1 mps 540 mmHg 59%

9 July, Thursday

Time Temperature Precipitation Wind Pressure Humidity
00:00 +8°C° 0 mm 1 mps 539 mmHg 62%
01:00 +8°C° 0 mm 1 mps 539 mmHg 64%
02:00 +7°C° 0 mm 1 mps 539 mmHg 67%
03:00 +7°C° 0 mm 1 mps 538 mmHg 65%
04:00 +6°C° 0 mm 1 mps 538 mmHg 63%
05:00 +5°C° 0 mm 1 mps 537 mmHg 61%
06:00 +6°C° 0 mm 1 mps 538 mmHg 55%
07:00 +7°C° 0 mm 1 mps 539 mmHg 49%
08:00 +8°C° 0 mm 1 mps 540 mmHg 44%
09:00 +11°C° 0 mm 1 mps 541 mmHg 35%
10:00 +13°C° 0 mm 1 mps 542 mmHg 26%
11:00 +15°C° 0 mm 1 mps 543 mmHg 17%
12:00 +16°C° 0 mm 2 mps 543 mmHg 17%
13:00 +17°C° 0 mm 2 mps 543 mmHg 16%
14:00 +19°C° 0 mm 3 mps 543 mmHg 16%
15:00 +18°C° 0 mm 3 mps 542 mmHg 18%
16:00 +18°C° 0 mm 3 mps 542 mmHg 20%
17:00 +18°C° 0 mm 3 mps 542 mmHg 21%
18:00 +16°C° 0 mm 2 mps 541 mmHg 28%
19:00 +14°C° 0 mm 2 mps 541 mmHg 34%
20:00 +12°C° 0 mm 1 mps 540 mmHg 41%
21:00 +11°C° 0 mm 1 mps 540 mmHg 42%
22:00 +11°C° 0 mm 1 mps 540 mmHg 43%
23:00 +10°C° 0 mm 1 mps 540 mmHg 45%

10 July, Friday

Time Temperature Precipitation Wind Pressure Humidity
00:00 +9°C° 0 mm 0 mps 539 mmHg 45%
01:00 +8°C° 0 mm 0 mps 539 mmHg 45%
02:00 +8°C° 0 mm 0 mps 539 mmHg 45%
03:00 +8°C° 0 mm 0 mps 538 mmHg 43%
04:00 +7°C° 0 mm 0 mps 538 mmHg 41%
05:00 +8°C° 0 mm 1 mps 538 mmHg 40%
06:00 +9°C° 0 mm 1 mps 538 mmHg 37%
07:00 +10°C° 0 mm 1 mps 539 mmHg 35%
08:00 +11°C° 0 mm 1 mps 540 mmHg 33%
09:00 +13°C° 0 mm 1 mps 541 mmHg 26%
10:00 +15°C° 0 mm 1 mps 542 mmHg 19%
11:00 +18°C° 0 mm 1 mps 543 mmHg 12%
12:00 +19°C° 0 mm 1 mps 543 mmHg 11%
13:00 +20°C° 0 mm 1 mps 543 mmHg 11%
14:00 +20°C° 0 mm 2 mps 543 mmHg 10%
15:00 +20°C° 0 mm 2 mps 543 mmHg 12%
16:00 +20°C° 0 mm 2 mps 542 mmHg 14%
17:00 +19°C° 0 mm 2 mps 542 mmHg 16%
18:00 +17°C° 0 mm 2 mps 542 mmHg 22%
19:00 +16°C° 0 mm 1 mps 541 mmHg 29%
20:00 +14°C° 0 mm 1 mps 541 mmHg 35%
21:00 +13°C° 0 mm 1 mps 541 mmHg 41%
22:00 +12°C° 0 mm 1 mps 541 mmHg 48%
23:00 +11°C° 0 mm 1 mps 541 mmHg 54%
Show more